Temp
67 69 69 69 68 70 73 76 76 75 75 76 76 76 76 77 77 76 77 78 78 77 77 77 78 77 78 78 77 78 78 77 76 76 73 73 70 69 70 72 71 72
69 69 69 70 70 73 77 77 76 76 76 77 78 78 78 78 77 78 77 77 78 77 78 77 77 78 77 78 77 76 77 76 76 78 75 74 73 72 71 72 70 72
72 70 69 68 68 71 75 76 77 77 77 78 78 78 77 77 76 77 77 77 77 77 76 77 77 77 77 77 77 77 76 75 76 77 76 76 74 72 73 72 72 71
72 71 71 70 68 70 76 75 75 77 77 77 77 78 77 77 77 76 76 77 77 77 77 77 77 78 78 78 76 76 77 77 77 76 75 73 75 75 73 75 73 72
73 73 73 69 67 71 76 76 76 77 76 77 77 77 77 76 76 76 75 75 76 77 77 78 78 78 78 77 77 76 77 76 76 74 76 75 75 74 72 74 74 73
75 77 74 71 70 75 76 77 78 77 77 76 76 77 76 76 76 76 76 76 77 78 78 78 78 78 78 78 77 77 77 77 76 77 76 76 77 77 78 75 73 72
73 74 74 73 76 78 77 77 78 78 78 77 77 75 77 77 78 78 79 78 79 78 79 77 77 76 77 76 77 76 77 77 78 77 77 77 77 76 78 77 77 77
72 73 74 76 77 77 76 77 78 78 77 77 77 78 79 80 80 79 79 79 79 79 79 80 78 78 77 77 77 76 75 76 77 77 77 77 76 76 76 78 76 75
69 67 68 74 75 77 76 77 77 77 79 77 77 78 79 80 79 79 79 80 79 78 80 80 79 80 78 77 77 76 77 76 76 76 76 76 75 76 77 77 76 75
65 66 66 73 76 76 76 76 78 77 78 78 79 79 80 79 79 80 79 79 79 79 80 79 79 78 78 78 78 77 76 76 77 76 77 77 76 77 78 76 76 73
65 65 68 74 75 76 76 77 77 77 77 79 78 78 79 78 78 80 79 79 78 79 80 79 79 79 78 77 77 77 77 77 76 77 76 77 77 77 76 77 75 74
64 64 70 74 76 75 76 76 77 77 78 78 80 78 79 79 78 80 80 81 80 81 81 80 81 80 80 79 78 78 77 77 77 78 77 78 78 80 80 79 76 75
66 65 67 73 75 75 76 77 77 77 77 78 78 79 78 78 80 80 80 81 81 80 81 79 80 80 80 79 79 79 78 77 77 77 77 77 78 80 80 79 79 79
69 70 72 73 75 75 76 75 75 76 77 78 79 78 78 79 79 79 79 81 80 80 81 81 79 80 80 80 80 79 77 77 77 77 77 77 77 79 80 80 80 79
69 71 73 74 76 75 75 74 74 75 78 78 78 78 78 80 79 79 79 80 80 79 80 80 77 68 64 64 71 78 79 76 76 77 77 76 77 78 78 78 79 79
68 66 70 72 73 74 75 75 74 75 76 77 77 78 78 79 79 78 79 78 77 78 78 75 68 63 49 42 47 64 74 78 76 76 76 76 76 76 76 77 78 78
68 66 68 70 72 72 73 74 75 74 74 75 76 76 76 77 77 77 77 77 77 77 74 68 64 56 41 39 42 41 64 74 77 75 77 77 76 75 75 75 76 78
67 68 67 67 69 70 70 70 69 71 72 73 73 73 74 76 75 76 76 76 74 72 69 66 60 44 39 41 40 39 44 65 75 76 76 76 77 76 76 76 76 76
65 65 63 64 64 65 66 67 67 67 67 67 67 70 72 73 74 74 73 72 71 70 67 65 61 41 40 39 40 39 36 51 77 77 76 76 76 77 77 78 77 76
61 60 59 59 59 61 62 63 63 61 61 64 66 67 67 67 67 68 69 69 67 66 64 62 58 44 40 39 41 39 40 46 75 77 75 77 76 76 76 75 75 76
58 57 56 55 55 56 57 58 57 57 57 58 59 61 63 63 62 62 64 64 64 63 62 59 53 39 40 39 40 40 38 47 74 74 75 75 75 75 75 75 75 74
54 54 55 55 53 53 53 53 53 54 53 54 56 57 58 59 61 64 63 64 63 62 60 59 55 39 39 40 40 40 41 66 73 73 73 74 74 74 75 75 75 75
53 52 52 53 52 52 52 52 52 52 52 54 54 55 55 55 56 60 63 64 63 61 59 58 55 43 39 40 41 39 50 69 72 73 73 72 72 72 74 75 73 73
53 53 52 52 52 52 52 51 52 52 53 54 53 53 54 55 56 56 57 61 61 61 61 58 54 45 39 40 41 40 48 67 73 74 72 72 71 72 73 71 61 51
52 53 53 52 51 51 52 52 52 53 56 56 55 54 54 55 56 55 56 57 57 57 56 58 56 49 40 40 40 41 49 64 70 73 72 71 72 72 73 71 62 50
52 52 52 52 52 52 52 52 54 55 55 55 56 56 54 53 54 54 54 53 54 56 56 57 55 50 44 40 40 42 40 57 68 68 67 68 70 71 71 73 63 55
MSLP
1015.26 1015.54 1015.78 1015.82 1016.10 1016.38 1016.02 1015.66 1015.78 1016.06 1016.10 1016.14 1016.38 1016.42 1016.54 1016.58 1016.82 1017.14 1017.22 1017.38 1017.54 1017.70 1017.78 1017.82 1017.90 1018.02 1018.10 1018.14 1018.22 1018.30 1018.30 1018.38 1018.58 1018.66 1019.26 1019.58 1020.10 1020.06 1020.34 1020.34 1020.54 1020.66
1014.90 1015.26 1015.46 1015.62 1015.90 1015.98 1015.46 1015.42 1015.62 1015.82 1015.90 1015.86 1016.02 1016.22 1016.30 1016.46 1016.78 1016.98 1017.26 1017.42 1017.54 1017.66 1017.74 1017.86 1017.94 1018.06 1018.10 1018.18 1018.22 1018.34 1018.46 1018.50 1018.54 1018.58 1018.94 1019.34 1019.66 1019.94 1020.14 1020.26 1020.62 1020.58
1014.46 1015.06 1015.50 1015.70 1015.94 1016.02 1015.38 1015.30 1015.42 1015.62 1015.74 1015.70 1015.82 1016.06 1016.34 1016.58 1016.86 1016.98 1017.26 1017.42 1017.50 1017.62 1017.82 1017.86 1017.94 1018.02 1018.14 1018.18 1018.26 1018.38 1018.50 1018.66 1018.62 1018.54 1018.74 1018.98 1019.18 1019.66 1019.62 1020.14 1020.34 1020.38
1014.02 1014.58 1015.06 1015.46 1015.90 1016.06 1015.34 1015.50 1015.58 1015.62 1015.74 1015.82 1015.98 1016.06 1016.38 1016.66 1016.86 1017.10 1017.30 1017.46 1017.54 1017.66 1017.74 1017.78 1017.86 1017.98 1018.10 1018.14 1018.34 1018.38 1018.30 1018.34 1018.54 1018.62 1018.78 1019.18 1019.10 1019.18 1019.54 1019.50 1019.86 1020.34
1013.74 1014.34 1014.70 1015.30 1016.10 1016.14 1015.34 1015.54 1015.70 1015.66 1015.82 1015.86 1015.98 1016.22 1016.46 1016.70 1016.90 1017.18 1017.38 1017.54 1017.58 1017.66 1017.70 1017.78 1017.82 1018.02 1018.10 1018.22 1018.26 1018.38 1018.26 1018.42 1018.46 1018.86 1018.66 1018.86 1018.90 1019.18 1019.74 1019.62 1019.74 1020.02
1013.54 1013.94 1014.50 1015.06 1015.54 1015.38 1015.42 1015.50 1015.58 1015.74 1015.86 1016.02 1016.14 1016.26 1016.50 1016.70 1016.94 1017.14 1017.34 1017.50 1017.54 1017.58 1017.70 1017.82 1017.94 1018.02 1018.06 1018.18 1018.26 1018.22 1018.30 1018.26 1018.26 1018.34 1018.62 1018.70 1018.74 1018.74 1018.90 1019.34 1019.78 1019.98
1013.78 1014.02 1014.54 1015.02 1015.06 1015.02 1015.30 1015.38 1015.50 1015.62 1015.82 1015.94 1016.14 1016.34 1016.42 1016.66 1016.78 1016.94 1017.14 1017.34 1017.46 1017.62 1017.70 1017.90 1017.94 1018.10 1018.10 1018.14 1018.18 1018.34 1018.22 1018.22 1018.10 1018.34 1018.50 1018.58 1018.66 1018.78 1018.74 1018.98 1019.18 1019.38
1013.74 1014.10 1014.46 1014.74 1014.82 1015.10 1015.14 1015.34 1015.50 1015.66 1015.82 1015.94 1016.14 1016.10 1016.22 1016.46 1016.62 1016.86 1017.02 1017.26 1017.34 1017.46 1017.54 1017.62 1017.78 1017.90 1017.98 1018.10 1018.22 1018.22 1018.30 1018.18 1018.22 1018.34 1018.50 1018.62 1018.70 1018.94 1019.02 1018.90 1019.10 1019.42
1013.98 1014.46 1014.74 1014.86 1015.14 1015.06 1015.26 1015.34 1015.50 1015.66 1015.66 1015.90 1015.98 1016.10 1016.06 1016.26 1016.54 1016.82 1017.02 1017.14 1017.30 1017.46 1017.50 1017.58 1017.66 1017.66 1017.74 1017.98 1018.10 1018.22 1018.26 1018.26 1018.26 1018.38 1018.58 1018.70 1018.86 1018.90 1018.94 1018.94 1019.10 1019.30
1014.50 1014.82 1015.10 1014.90 1014.90 1014.90 1015.18 1015.30 1015.34 1015.54 1015.54 1015.70 1015.82 1015.94 1016.06 1016.22 1016.42 1016.78 1016.98 1017.14 1017.30 1017.42 1017.42 1017.58 1017.62 1017.74 1017.90 1017.98 1018.02 1018.18 1018.34 1018.42 1018.38 1018.42 1018.50 1018.54 1018.74 1018.86 1018.82 1019.06 1019.10 1019.50
1014.58 1015.02 1015.22 1014.62 1014.62 1014.62 1014.94 1015.06 1015.26 1015.50 1015.58 1015.62 1015.90 1016.02 1016.10 1016.34 1016.62 1016.70 1016.98 1017.10 1017.34 1017.38 1017.42 1017.54 1017.62 1017.78 1017.94 1018.02 1018.10 1018.14 1018.26 1018.34 1018.50 1018.62 1018.62 1018.62 1018.66 1018.66 1018.62 1018.82 1019.26 1019.34
1015.10 1015.90 1015.22 1014.66 1014.62 1014.86 1014.94 1015.06 1015.22 1015.42 1015.58 1015.74 1015.90 1016.18 1016.26 1016.42 1016.66 1016.66 1016.86 1016.94 1017.18 1017.14 1017.22 1017.38 1017.46 1017.62 1017.70 1017.90 1018.02 1018.06 1018.14 1018.30 1018.34 1018.38 1018.46 1018.50 1018.50 1018.14 1018.26 1018.58 1019.02 1019.30
1015.18 1015.62 1015.22 1014.66 1014.66 1014.90 1014.98 1015.10 1015.34 1015.54 1015.82 1016.14 1016.18 1016.14 1016.46 1016.58 1016.54 1016.70 1016.74 1016.78 1016.86 1017.06 1016.86 1017.22 1017.22 1017.46 1017.58 1017.74 1017.86 1017.98 1018.14 1018.30 1018.34 1018.38 1018.50 1018.62 1018.58 1018.30 1018.38 1018.58 1018.66 1018.86
1014.38 1014.34 1014.34 1014.30 1014.42 1014.70 1014.86 1015.14 1015.54 1015.78 1015.98 1015.86 1015.94 1016.22 1016.46 1016.50 1016.62 1016.74 1016.78 1016.74 1016.82 1016.98 1016.82 1017.02 1017.38 1017.42 1017.58 1017.82 1017.82 1017.94 1018.22 1018.46 1018.58 1018.58 1018.54 1018.74 1018.58 1018.42 1018.38 1018.62 1018.66 1018.90
1013.86 1014.10 1014.18 1014.22 1014.34 1014.66 1014.90 1015.34 1015.58 1015.94 1015.74 1015.94 1016.06 1016.30 1016.38 1016.38 1016.54 1016.70 1016.94 1016.94 1017.06 1017.14 1017.06 1017.18 1017.74 1018.54 1019.14 1019.22 1018.66 1017.98 1018.02 1018.50 1018.66 1018.74 1018.66 1018.82 1018.90 1018.74 1018.82 1018.98 1018.98 1018.98
1013.86 1014.30 1014.54 1014.62 1014.66 1014.82 1014.98 1015.26 1015.62 1015.74 1015.86 1016.02 1016.18 1016.30 1016.38 1016.42 1016.66 1016.86 1017.02 1017.26 1017.42 1017.54 1017.62 1018.02 1018.82 1019.34 1020.10 1019.90 1019.50 1019.02 1018.54 1018.26 1018.70 1018.82 1018.82 1018.90 1019.02 1019.06 1019.18 1019.14 1019.06 1019.06
1014.02 1014.50 1014.82 1015.14 1015.06 1015.22 1015.30 1015.46 1015.62 1015.90 1016.14 1016.26 1016.34 1016.46 1016.58 1016.78 1016.90 1017.14 1017.26 1017.38 1017.58 1017.78 1018.26 1018.90 1019.42 1020.18 1020.26 1019.78 1019.42 1019.34 1019.06 1018.62 1018.50 1018.82 1018.82 1018.78 1018.98 1019.22 1019.34 1019.34 1019.34 1019.22
1014.46 1014.74 1015.06 1015.42 1015.50 1015.66 1015.74 1015.94 1016.22 1016.42 1016.58 1016.62 1016.70 1016.90 1016.94 1016.98 1017.22 1017.26 1017.38 1017.58 1017.94 1018.50 1018.98 1019.46 1020.06 1020.90 1020.42 1020.02 1019.82 1019.62 1019.54 1019.26 1018.74 1018.70 1018.90 1019.02 1018.94 1019.06 1019.06 1019.18 1019.26 1019.34
1014.74 1015.22 1015.66 1015.78 1015.98 1016.06 1016.10 1016.30 1016.58 1016.94 1017.22 1017.42 1017.62 1017.50 1017.30 1017.38 1017.38 1017.50 1017.86 1018.22 1018.62 1018.98 1019.42 1019.82 1020.42 1021.26 1020.82 1020.50 1020.18 1019.94 1019.86 1019.62 1018.90 1018.54 1018.86 1018.94 1018.90 1018.86 1018.78 1018.74 1018.90 1019.22
1015.66 1016.06 1016.38 1016.70 1016.66 1016.54 1016.58 1016.86 1017.14 1017.58 1017.82 1017.90 1017.90 1017.90 1018.06 1018.30 1018.38 1018.46 1018.58 1018.94 1019.30 1019.54 1019.90 1020.38 1020.98 1021.66 1021.34 1020.86 1020.46 1020.22 1019.98 1019.78 1019.10 1018.58 1018.90 1018.78 1018.94 1018.98 1019.02 1019.18 1019.14 1019.22
1016.38 1016.62 1017.26 1017.54 1017.50 1017.38 1017.54 1017.78 1018.06 1018.22 1018.42 1018.62 1018.54 1018.62 1018.70 1018.82 1019.06 1019.34 1019.62 1019.74 1019.90 1020.06 1020.30 1020.86 1021.66 1022.02 1021.58 1021.18 1020.78 1020.46 1020.18 1019.78 1019.14 1019.02 1019.14 1019.06 1019.10 1019.10 1019.26 1019.22 1019.38 1019.58
1017.22 1017.46 1017.78 1018.18 1018.34 1018.30 1018.34 1018.58 1018.90 1019.06 1019.18 1019.18 1019.22 1019.26 1019.30 1019.34 1019.38 1019.46 1019.86 1020.18 1020.30 1020.38 1020.58 1020.86 1021.58 1021.82 1021.54 1021.26 1020.90 1020.54 1020.26 1019.78 1019.18 1019.30 1019.22 1019.14 1019.26 1019.30 1019.30 1019.26 1019.34 1019.46
1017.98 1018.14 1018.34 1018.58 1018.66 1018.78 1019.02 1019.22 1019.46 1019.66 1019.78 1019.78 1019.94 1020.02 1020.02 1020.18 1020.22 1019.90 1019.94 1020.22 1020.46 1020.66 1020.86 1021.14 1021.62 1021.98 1021.74 1021.46 1021.10 1020.86 1020.30 1019.62 1019.22 1019.18 1019.22 1019.42 1019.54 1019.50 1019.42 1019.34 1019.62 1019.78
1018.46 1018.62 1018.86 1019.06 1019.10 1019.30 1019.62 1019.82 1019.86 1020.02 1020.30 1020.34 1020.42 1020.54 1020.54 1020.66 1020.86 1020.90 1020.62 1020.50 1020.62 1020.70 1020.82 1021.26 1021.74 1022.18 1021.98 1021.74 1021.42 1021.06 1020.62 1019.82 1019.26 1019.02 1019.46 1019.54 1019.66 1019.74 1019.54 1019.86 1020.58 1020.70
1019.10 1019.10 1019.22 1019.58 1019.82 1019.90 1020.06 1020.18 1020.22 1020.30 1020.46 1020.62 1020.74 1020.78 1020.86 1020.94 1021.14 1021.30 1021.22 1021.22 1021.42 1021.42 1021.22 1021.18 1021.66 1022.14 1022.18 1022.10 1021.82 1021.54 1021.14 1020.42 1019.66 1019.26 1019.46 1019.62 1019.54 1019.54 1019.58 1019.90 1021.02 1021.78
1019.90 1019.94 1019.98 1020.10 1020.38 1020.50 1020.46 1020.54 1020.58 1020.62 1020.70 1020.70 1020.78 1020.82 1021.06 1021.18 1021.26 1021.46 1021.62 1021.82 1021.94 1021.82 1021.78 1021.66 1021.90 1022.50 1022.62 1022.46 1022.30 1021.98 1021.74 1021.10 1020.18 1020.18 1020.18 1020.14 1020.06 1019.82 1019.86 1019.66 1020.70 1021.94
Wind_Speed
8 7 8 7 7 9 9 9 7 8 7 7 6 6 7 6 8 6 5 5 5 5 4 5 5 5 5 6 5 6 5 6 7 6 5 5 7 6 4 5 2 3
12 10 7 7 5 9 8 8 9 8 7 7 7 7 7 7 8 7 5 5 5 5 4 4 5 6 6 5 6 6 6 6 6 5 6 8 7 8 7 5 6 5
14 11 9 7 5 9 8 7 8 8 8 7 8 7 7 8 7 7 6 5 5 5 5 5 5 5 5 5 5 5 5 7 7 6 6 7 7 8 7 9 8 8
14 12 10 9 6 9 8 7 8 7 8 7 8 8 8 8 7 7 6 6 5 5 5 5 6 5 6 5 5 5 6 5 5 4 5 5 6 4 3 6 6 8
14 12 9 8 5 12 9 9 9 8 9 8 8 8 8 8 7 6 5 4 4 5 5 6 5 5 6 6 6 5 5 5 6 7 6 6 5 6 6 5 6 6
13 11 11 11 11 12 10 10 10 10 9 9 9 8 8 8 7 7 7 6 5 5 5 5 6 6 6 6 6 5 5 6 6 6 7 6 6 7 6 8 9 9
11 10 12 11 14 12 11 10 9 9 9 9 9 8 8 8 8 8 7 7 7 6 6 6 7 6 5 5 6 6 6 6 6 7 7 5 6 6 6 6 7 7
10 7 7 9 10 12 9 10 10 9 9 9 9 9 9 8 8 7 7 7 7 7 6 6 7 7 7 6 6 6 6 5 6 6 6 6 4 6 5 5 6 8
7 4 1 9 13 11 10 11 10 10 9 9 8 8 9 8 8 7 7 7 6 5 5 5 6 6 5 6 6 6 6 6 5 5 5 6 6 6 7 5 6 7
6 7 7 10 13 11 12 11 11 10 9 9 8 8 9 8 8 8 6 6 6 6 5 4 5 3 4 5 6 5 5 6 5 5 5 5 5 5 6 7 6 6
7 7 14 14 14 12 13 13 11 10 8 9 8 8 9 8 8 8 7 7 6 6 5 5 4 4 4 4 3 3 4 5 4 4 5 5 5 8 7 7 6 5
7 7 11 13 13 12 13 12 11 10 9 7 8 9 8 8 9 7 7 8 7 6 5 5 5 4 5 5 4 4 4 4 6 5 5 6 7 6 5 6 6 8
12 11 5 10 11 11 10 10 9 10 8 9 8 9 8 8 8 8 7 7 7 6 6 5 5 5 3 3 5 5 3 5 4 4 5 5 5 6 7 5 6 5
10 10 7 8 10 11 11 9 10 8 11 9 9 8 8 8 8 7 6 6 6 6 5 5 4 4 2 3 4 5 5 4 3 4 4 5 6 6 4 4 4 5
9 7 7 8 10 12 11 11 9 11 9 9 8 8 6 7 7 6 6 5 5 3 1 2 4 9 7 7 8 1 6 4 5 4 4 5 4 3 4 5 4 4
10 8 7 7 9 9 10 10 10 8 8 8 8 7 7 6 6 6 5 5 6 5 5 5 7 5 7 9 6 6 5 5 5 5 5 5 6 6 6 5 5 4
10 9 8 8 8 8 9 9 9 8 6 7 7 7 7 7 6 6 6 6 6 6 6 7 5 5 11 10 11 11 7 7 5 3 4 6 6 6 6 5 5 5
11 10 9 8 8 9 10 10 10 9 6 5 6 6 6 6 6 7 6 6 6 8 7 6 5 8 9 9 9 8 6 6 3 4 3 3 4 5 5 5 6 6
10 10 9 9 8 8 8 9 10 10 9 9 8 5 4 4 5 6 7 7 6 7 7 6 6 9 8 7 6 6 6 5 5 5 3 4 3 4 5 6 6 5
11 11 10 8 7 8 9 9 10 9 8 7 7 8 9 8 8 7 7 6 6 7 7 7 7 10 11 8 6 6 5 5 6 3 2 3 3 3 2 2 2 2
12 12 10 9 8 8 9 9 8 7 8 5 5 6 6 7 7 7 6 6 7 7 7 7 5 10 11 11 10 9 8 7 3 0 3 3 2 1 1 1 2 3
12 12 11 10 9 8 10 9 8 7 7 6 7 6 7 6 6 7 7 6 6 7 7 7 6 12 12 12 12 12 11 5 3 3 4 3 4 2 4 4 4 3
9 10 10 10 9 9 8 8 8 8 7 5 6 6 6 6 4 5 6 6 6 6 6 6 6 10 12 13 13 14 9 5 4 4 4 3 2 2 3 1 3 4
10 10 10 8 9 9 8 7 7 6 6 5 5 5 6 6 5 5 6 5 5 5 5 6 6 9 12 13 14 15 12 7 3 3 2 2 3 3 3 4 8 13
9 10 10 9 8 8 7 6 6 5 6 6 5 6 6 6 5 5 6 6 6 5 5 6 6 8 12 12 14 14 11 7 6 2 2 1 2 2 2 5 7 10
8 9 9 9 8 7 7 6 5 5 5 5 5 5 5 4 4 4 5 5 4 4 6 6 6 6 8 11 12 13 14 9 5 6 5 4 2 4 2 1 9 8
Wind_Direction
162 163 164 170 181 215 207 180 168 168 177 172 169 167 164 157 159 171 169 174 171 176 184 183 189 186 188 201 200 212 201 202 196 181 180 142 166 191 177 198 205 230
167 171 182 165 187 220 192 179 171 172 179 171 164 164 163 157 159 169 168 172 177 173 180 180 189 193 194 196 198 199 190 200 202 180 189 176 167 174 181 192 202 211
173 176 177 157 182 229 178 183 165 173 172 169 155 160 157 158 157 163 162 177 183 165 180 184 195 196 200 205 197 206 196 189 196 188 194 199 178 198 176 180 199 183
174 176 165 153 165 228 172 169 169 166 169 162 157 155 150 156 158 157 164 176 183 179 189 198 198 191 199 195 192 202 204 193 187 188 181 193 203 173 186 181 199 192
170 167 143 115 161 224 173 172 173 165 162 158 154 152 155 152 153 152 156 181 190 193 195 204 203 194 195 192 196 200 205 197 186 191 197 197 191 168 188 201 193 196
166 159 144 160 192 199 174 170 173 165 159 154 152 151 152 151 158 163 173 177 191 192 190 197 198 201 196 195 199 200 206 203 195 199 200 204 188 189 187 180 194 195
158 156 161 182 193 175 175 165 165 159 156 156 155 160 159 165 169 168 174 174 188 189 190 194 198 196 201 204 204 203 201 212 194 203 206 200 198 193 184 190 201 194
145 152 175 184 168 174 161 161 158 163 159 161 168 160 163 169 165 166 174 185 186 194 194 195 201 194 196 200 207 204 200 203 201 204 212 199 202 207 196 208 185 199
125 109 135 186 172 171 165 163 166 164 166 162 163 154 166 165 162 161 180 182 178 195 195 197 208 201 191 197 203 203 205 189 196 199 201 198 204 200 203 207 193 198
121 155 197 199 170 170 172 166 167 167 162 162 160 160 160 167 148 172 172 174 179 191 187 187 199 184 192 205 201 210 210 197 197 192 196 200 203 205 197 202 199 201
159 185 200 184 173 170 172 164 166 162 164 162 157 163 159 157 160 170 177 173 181 193 173 188 176 183 184 192 171 205 211 202 200 198 195 198 190 203 186 184 192 199
129 215 209 173 168 169 166 162 163 158 160 158 164 164 157 167 167 173 182 172 182 189 175 182 186 179 178 176 167 181 185 179 205 187 191 193 204 213 176 168 182 167
170 166 224 164 164 165 160 160 156 150 165 166 185 157 168 170 170 172 185 174 181 181 192 171 189 186 179 192 176 175 157 173 190 184 185 182 202 191 182 169 184 172
154 137 137 135 156 158 160 150 152 173 175 175 165 161 169 172 169 170 173 187 167 196 179 179 170 204 180 178 216 167 185 168 197 195 176 173 211 192 194 184 197 165
114 111 116 131 154 163 161 160 163 177 180 166 165 159 173 167 164 159 172 171 146 190 121 113 80 48 32 12 354 258 168 184 197 212 200 176 187 194 167 197 204 191
116 103 100 112 125 145 158 158 167 171 169 160 161 158 165 153 154 155 160 150 163 149 157 88 52 51 9 350 6 5 338 196 176 216 204 214 209 206 191 220 207 204
127 125 122 125 116 122 126 142 157 157 152 154 154 153 148 145 149 150 149 151 144 145 98 68 56 24 355 7 3 7 355 333 168 194 208 222 205 221 224 219 223 228
125 127 125 121 115 112 107 97 85 86 104 123 127 132 136 145 153 153 145 121 98 87 77 70 64 19 356 9 6 359 1 342 297 202 191 225 220 217 213 219 213 213
109 116 101 95 91 88 88 86 89 90 85 80 70 61 80 125 137 121 105 102 98 94 84 75 68 11 356 6 8 353 353 327 260 203 219 212 239 232 237 219 197 184
92 80 73 63 67 79 81 82 83 77 66 62 72 75 74 69 64 75 85 87 84 88 79 66 45 3 350 357 4 349 344 325 276 220 222 233 193 231 249 300 312 237
76 83 75 68 61 65 68 68 66 67 65 47 40 50 64 69 67 61 70 81 80 80 83 65 45 5 4 360 2 349 342 294 270 81 211 221 214 191 282 236 201 221
69 71 71 65 56 54 67 68 57 47 55 56 64 60 49 53 86 111 109 108 102 95 91 81 52 21 10 9 6 2 338 288 219 207 230 205 183 187 208 194 204 218
60 67 68 67 64 63 62 67 74 66 56 49 67 66 71 51 26 69 101 107 103 95 92 84 57 21 14 13 9 5 350 288 203 218 195 207 207 196 238 204 51 31
53 57 62 62 67 72 72 75 72 69 65 50 66 75 74 74 66 44 56 73 84 94 96 93 69 35 22 16 12 7 354 340 293 234 182 228 189 211 253 96 58 43
45 54 59 52 47 52 52 59 59 70 87 90 82 71 75 75 69 67 66 65 55 46 31 79 79 51 32 20 12 14 6 344 333 317 200 219 310 169 200 122 93 59
53 57 59 58 55 51 48 50 54 60 70 80 76 79 74 82 102 78 72 63 49 43 40 46 68 61 33 28 17 11 10 354 358 2 13 8 340 332 333 176 116 100